Погода в Ямках

Россия / Ханты-Мансийский автономный округ - Югра     59°31′17″N   66°15′58″E
темп.,
°C
ветер,
м/с
пор.,
м/с
влажн.,
%
обл.,
%
осадки,
мм/ч
давл.,
гПа
погр.,
м
14 августа, вс
вс1423:00+13сз613725 0.3 1010885
02:00+11зсз512745 0.0 1011577
05:00+10зсз411835 0.0 1012424
08:00+13сз5107119 0.0 1013712
11:00+16сз6960100 0.1 10131603
14:00+16сз6106173 0.4 10141541
17:00+16сз6106181 0.6 10151524
20:00+12сз387882 0.3 1016220
15 августа, пн
пн1523:00+9сз378640 0.4 1017154
02:00+7зсз229273 0.0 101825
05:00+9з248029 0.0 1019124
08:00+11сз35706 0.0 1019456
11:00+15сз345576 0.0 10191488
14:00+16сз354796 0.0 10191815
17:00+17сз354698 0.0 10192007
20:00+13з236275 0.0 101868
16 августа, вт
вт1623:00+9зюз35716 0.0 101876
02:00+11зюз41265100 0.0 1017322
05:00+11зсз497798 0.0 1016315
08:00+13сз597713 0.1 1017658
11:00+16сз575983 0.8 10171414
14:00+16ссз696063 0.7 10171573
17:00+14ссз5115750 1.3 10191443
20:00+11ссз410665 0.0 1019521
17 августа, ср
ср1723:00+8сз310805 0.0 1020254
02:00+6сз37917 0.0 1021147
05:00+6зсз388880 0.0 1020186
08:00+11сз4766100 0.0 1020421
11:00+12сз376344 0.0 1020781
14:00+13ссз4852100 0.1 10191565
17:00+15сз484597 0.1 10182215
20:00+11ссв49585 0.0 1019424
18 августа, чт
чт1823:00+6сз310725 0.0 1019199
02:00+4ссз38816 0.0 1019182
05:00+4ссз3108053 0.0 1020237
08:00+8с4964100 0.0 1020568
11:00+7с4876100 0.1 1022620
14:00+7с4881100 0.1 1023621
17:00+8с388085 0.1 1023508
20:00+9сз3678100 0.0 1023180